SAUDICOMSAT 3

Last updated on Thu Aug 20 2026 00:03:14 GMT+0000 (Coordinated Universal Time)

1 31125U 07012J 26231.18162036 .00000545 00000+0 97192-4 0 9998 2 31125 98.3211 207.9043 0038233 211.1545 148.7394 14.70788998 34083
UTC large
Height (km)
Speed (km/s)
/
Latitude / Longitude
Inclination (degrees)
Orbital Period (minutes)
Azimuth
Elevation
Range (km)
Doppler Factor

Next 0 passes for location: London (51.5072 / 0.1276)

No passes found over London.
SAUDICOMSAT 3